Location: Unspecified
(47.5840°N, 122.3000°W)
Time: 23:56:32
(UTC+00:00)

ATLAS 2AS CENTAUR R/B - Pass Details

Date: 04 August 2024
Orbit: 1023 x 1188 km, 63.7° (Epoch: 16 September)

Event Time Altitude Azimuth Distance (km) Brightness Sun altitude
Exits shadow 12:12:54 - 262° (W) 3,641 4.9 -6.4°
Reaches altitude 10° 12:14:50 10° 269° (W) 3,036 4.6 -6.2°
Maximum altitude 12:21:13 33° 331° (NNW) 1,793 4.0 -5.3°
Drops below altitude 10° 12:27:26 10° 34° (NE) 2,936 6.3 -4.4°
Sets 12:30:23 0° 44° (NE) 3,868 7.5 -4.0°
